WX6YYZ Weather Reports


time (UTC)temp
C
wind
direction
speed
KPH
gust
KPH
rain 1hr
cm
rain 24hr
cm
rain mn
cm
humidity
%
barometer
mb
20260507052659 16 301 4.8 8.0 0.00 0.00 0.00 74 1017.6
20260507052158 16 312 3.2 9.7 0.00 0.00 0.00 74 1017.9
20260507051657 16 304 3.2 9.7 0.00 0.00 0.00 74 1017.9
20260507051156 16 296 4.8 9.7 0.00 0.00 0.00 73 1017.9
20260507050655 16 296 3.2 9.7 0.00 0.00 0.00 73 1017.9
20260507050154 16 295 6.4 16.1 0.00 0.00 0.00 73 1017.6
20260507045653 16 286 4.8 16.1 0.00 0.00 0.00 73 1017.6
20260507045152 16 291 6.4 16.1 0.00 0.00 0.00 73 1017.6
20260507044651 16 295 6.4 14.5 0.00 0.00 0.00 73 1017.6
20260507044149 16 298 8.0 14.5 0.00 0.00 0.00 72 1017.6
20260507043648 16 295 8.0 14.5 0.00 0.00 0.00 72 1017.6
20260507043147 16 288 6.4 12.9 0.00 0.00 0.00 72 1017.6
20260507042645 16 289 6.4 12.9 0.00 0.00 0.00 72 1017.6
20260507042144 16 291 6.4 14.5 0.00 0.00 0.00 71 1017.6
20260507041643 16 304 8.0 14.5 0.00 0.00 0.00 71 1017.6
20260507041143 16 286 8.0 16.1 0.00 0.00 0.00 71 1017.3
20260507040642 17 301 9.7 16.1 0.00 0.00 0.00 70 1017.3
20260507040141 17 286 8.0 16.1 0.00 0.00 0.00 70 1017.3
20260507035610 17 298 9.7 17.7 0.00 0.00 0.00 69 1017.3
20260507035109 17 297 8.0 17.7 0.00 0.00 0.00 69 1016.9
20260507034607 17 281 8.0 17.7 0.00 0.00 0.00 69 1016.9
20260507034106 17 290 8.0 17.7 0.00 0.00 0.00 68 1016.9
20260507033605 17 296 9.7 17.7 0.00 0.00 0.00 68 1016.9
20260507033033 17 288 9.7 19.3 0.00 0.00 0.00 68 1016.9
20260507032532 17 284 8.0 19.3 0.00 0.00 0.00 67 1016.9
20260507032031 17 287 8.0 19.3 0.00 0.00 0.00 67 1016.9
20260507031531 17 280 9.7 19.3 0.00 0.00 0.00 66 1016.6
20260507030959 18 288 9.7 19.3 0.00 0.00 0.00 66 1016.6
20260507030427 18 284 11.3 19.3 0.00 0.00 0.00 65 1016.6
20260507025926 18 284 11.3 19.3 0.00 0.00 0.00 65 1016.6
20260507025425 18 284 8.0 19.3 0.00 0.00 0.00 65 1016.6
20260507024924 18 281 9.7 19.3 0.00 0.00 0.00 64 1016.3
20260507024423 18 271 9.7 20.9 0.00 0.00 0.00 64 1016.3
20260507023922 18 283 11.3 20.9 0.00 0.00 0.00 63 1016.3
20260507023421 18 284 9.7 20.9 0.00 0.00 0.00 62 1016.3
20260507022920 19 282 14.5 24.1 0.00 0.00 0.00 61 1016.3
20260507022348 19 282 12.9 24.1 0.00 0.00 0.00 60 1016.3
20260507021816 20 277 12.9 24.1 0.00 0.00 0.00 59 1016.3
20260507021314 20 284 16.1 24.1 0.00 0.00 0.00 59 1016.3
20260507020813 20 283 12.9 25.7 0.00 0.00 0.00 58 1015.9
20260507020312 20 283 12.9 25.7 0.00 0.00 0.00 57 1015.9
20260507015740 20 275 12.9 25.7 0.00 0.00 0.00 57 1015.9
20260507015239 21 280 12.9 24.1 0.00 0.00 0.00 56 1015.9
20260507014706 21 282 16.1 24.1 0.00 0.00 0.00 55 1015.9
20260507014205 21 286 14.5 24.1 0.00 0.00 0.00 54 1015.9
20260507013602 21 290 12.9 24.1 0.00 0.00 0.00 54 1015.9
20260507013101 21 281 12.9 27.4 0.00 0.00 0.00 54 1015.9
20260507012600 21 283 17.7 27.4 0.00 0.00 0.00 53 1015.9
20260507012059 21 288 14.5 27.4 0.00 0.00 0.00 53 1015.9
20260507011527 21 277 14.5 27.4 0.00 0.00 0.00 53 1015.6
20260507011026 21 285 17.7 27.4 0.00 0.00 0.00 53 1015.9
20260507010454 22 278 16.1 25.7 0.00 0.00 0.00 52 1015.6
20260507005952 22 286 14.5 25.7 0.00 0.00 0.00 51 1015.6
20260507005420 22 274 14.5 25.7 0.00 0.00 0.00 50 1015.6
20260507004919 22 279 16.1 25.7 0.00 0.00 0.00 49 1015.6
20260507004418 22 263 14.5 25.7 0.00 0.00 0.00 50 1015.6
20260507003917 22 279 12.9 25.7 0.00 0.00 0.00 49 1015.6
20260507003416 22 270 16.1 25.7 0.00 0.00 0.00 49 1015.6
20260507002915 22 278 14.5 25.7 0.00 0.00 0.00 48 1015.6
20260507002414 22 277 16.1 25.7 0.00 0.00 0.00 48 1015.6
20260507001913 23 280 17.7 25.7 0.00 0.00 0.00 47 1015.6
20260507001412 23 287 16.1 27.4 0.00 0.00 0.00 46 1015.2
20260507000911 23 270 14.5 27.4 0.00 0.00 0.00 47 1015.2
20260507000412 22 284 14.5 27.4 0.00 0.00 0.00 47 1015.2
20260506235909 22 272 14.5 27.4 0.00 0.00 0.00 47 1015.6
20260506235409 22 283 12.9 30.6 0.00 0.00 0.00 48 1015.2
20260506234907 22 272 19.3 30.6 0.00 0.00 0.00 48 1015.2
20260506234406 23 282 12.9 30.6 0.00 0.00 0.00 48 1015.2
20260506233834 23 277 16.1 29.0 0.00 0.00 0.00 47 1015.2
20260506233334 23 276 16.1 29.0 0.00 0.00 0.00 48 1015.2
20260506232832 23 279 12.9 29.0 0.00 0.00 0.00 47 1015.2
20260506232331 23 278 14.5 29.0 0.00 0.00 0.00 47 1015.6
20260506231830 23 288 12.9 27.4 0.00 0.00 0.00 47 1015.6
20260506231329 23 281 14.5 25.7 0.00 0.00 0.00 47 1015.6
20260506230757 23 290 12.9 25.7 0.00 0.00 0.00 48 1015.6
20260506230153 23 283 11.3 25.7 0.00 0.00 0.00 48 1015.6
20260506225653 23 287 14.5 25.7 0.00 0.00 0.00 47 1015.6
20260506225152 23 269 17.7 29.0 0.00 0.00 0.00 48 1015.6
20260506224619 23 264 12.9 29.0 0.00 0.00 0.00 48 1015.6
20260506224118 23 273 16.1 29.0 0.00 0.00 0.00 48 1015.6
20260506223617 23 259 16.1 27.4 0.00 0.00 0.00 47 1015.6
20260506223116 23 276 11.3 27.4 0.00 0.00 0.00 48 1015.6
20260506222615 23 284 12.9 29.0 0.00 0.00 0.00 48 1015.9
20260506222114 23 272 12.9 29.0 0.00 0.00 0.00 47 1015.9
20260506221613 23 272 9.7 29.0 0.00 0.00 0.00 46 1015.9
20260506221112 24 276 12.9 29.0 0.00 0.00 0.00 46 1015.9
20260506220540 24 274 12.9 22.5 0.00 0.00 0.00 45 1015.9
20260506220038 24 282 11.3 22.5 0.00 0.00 0.00 44 1016.3
20260506215538 24 262 9.7 22.5 0.00 0.00 0.00 43 1016.3
20260506215037 24 265 12.9 22.5 0.00 0.00 0.00 43 1016.3
20260506214402 24 271 9.7 22.5 0.00 0.00 0.00 44 1016.3
20260506213901 24 259 8.0 22.5 0.00 0.00 0.00 44 1016.3
20260506213400 23 252 8.0 22.5 0.00 0.00 0.00 44 1016.3
20260506212859 23 268 9.7 22.5 0.00 0.00 0.00 45 1016.6
20260506212358 24 279 8.0 19.3 0.00 0.00 0.00 44 1016.6
20260506211826 24 278 9.7 19.3 0.00 0.00 0.00 44 1016.6
20260506211325 23 269 6.4 19.3 0.00 0.00 0.00 45 1016.6
20260506210824 23 261 6.4 22.5 0.00 0.00 0.00 47 1016.6
20260506210323 23 278 9.7 22.5 0.00 0.00 0.00 45 1016.9
20260506205751 23 266 9.7 22.5 0.00 0.00 0.00 45 1016.9
20260506205250 23 271 11.3 20.9 0.00 0.00 0.00 46 1016.9
20260506204749 23 285 9.7 16.1 0.00 0.00 0.00 46 1016.9
20260506204248 22 296 4.8 19.3 0.00 0.00 0.00 47 1017.3
20260506203747 22 276 8.0 19.3 0.00 0.00 0.00 47 1017.3
20260506203246 22 290 8.0 19.3 0.00 0.00 0.00 46 1017.3
20260506202643 22 259 6.4 16.1 0.00 0.00 0.00 46 1017.3
20260506202142 23 254 4.8 14.5 0.00 0.00 0.00 46 1017.3
20260506201641 22 73 3.2 14.5 0.00 0.00 0.00 45 1017.6
20260506201140 22 307 4.8 14.5 0.00 0.00 0.00 46 1017.6
20260506200639 22 285 4.8 14.5 0.00 0.00 0.00 48 1017.6
20260506200138 22 288 4.8 14.5 0.00 0.00 0.00 46 1017.6
20260506195637 22 231 3.2 14.5 0.00 0.00 0.00 48 1017.9
20260506195136 21 240 4.8 14.5 0.00 0.00 0.00 49 1017.9
20260506194636 22 277 8.0 14.5 0.00 0.00 0.00 47 1017.9
20260506194135 22 276 4.8 14.5 0.00 0.00 0.00 47 1017.9
20260506193633 22 272 6.4 16.1 0.00 0.00 0.00 47 1017.9
20260506193133 21 167 1.6 16.1 0.00 0.00 0.00 48 1017.9
20260506192632 21 178 3.2 16.1 0.00 0.00 0.00 50 1018.3
20260506192131 21 281 11.3 16.1 0.00 0.00 0.00 49 1018.3
20260506191630 20 314 3.2 11.3 0.00 0.00 0.00 50 1018.3
20260506191129 20 275 4.8 11.3 0.00 0.00 0.00 50 1018.3
20260506190628 20 254 3.2 16.1 0.00 0.00 0.00 51 1018.3
20260506190127 20 233 3.2 16.1 0.00 0.00 0.00 52 1018.6
20260506185626 20 331 4.8 16.1 0.00 0.00 0.00 52 1018.6
20260506185125 20 264 9.7 16.1 0.00 0.00 0.00 51 1018.6
20260506184623 20 298 6.4 16.1 0.00 0.00 0.00 53 1018.6
20260506184122 20 260 4.8 16.1 0.00 0.00 0.00 51 1018.6
20260506183621 19 299 3.2 16.1 0.00 0.00 0.00 53 1018.6
20260506183120 19 271 4.8 16.1 0.00 0.00 0.00 52 1018.6
20260506182619 19 250 3.2 16.1 0.00 0.00 0.00 54 1019.0
20260506182118 20 272 4.8 14.5 0.00 0.00 0.00 52 1019.0
20260506181617 20 312 3.2 14.5 0.00 0.00 0.00 52 1019.0
20260506181116 19 52 1.6 14.5 0.00 0.00 0.00 54 1019.0
20260506180615 18 275 3.2 14.5 0.00 0.00 0.00 54 1019.0
20260506180114 18 266 4.8 14.5 0.00 0.00 0.00 54 1019.0
20260506175612 18 254 8.0 14.5 0.00 0.00 0.00 54 1019.0
20260506175112 18 331 3.2 11.3 0.00 0.00 0.00 55 1019.0
20260506174611 18 274 3.2 11.3 0.00 0.00 0.00 55 1019.0
20260506174039 18 297 4.8 11.3 0.00 0.00 0.00 56 1019.0
20260506173436 18 281 6.4 11.3 0.00 0.00 0.00 55 1019.0
20260506172934 18 267 3.2 9.7 0.00 0.00 0.00 56 1019.0
20260506172433 18 281 4.8 9.7 0.00 0.00 0.00 57 1019.0
20260506171932 18 234 1.6 3.2 0.00 0.00 0.00 58 1019.0
20260506171431 18 88 0.0 6.4 0.00 0.00 0.00 59 1019.0
20260506170930 17 154 1.6 6.4 0.00 0.00 0.00 63 1019.0
20260506170429 17 199 1.6 6.4 0.00 0.00 0.00 63 1019.0
20260506165929 17 306 3.2 6.4 0.00 0.00 0.00 62 1019.0
20260506165356 16 247 3.2 6.4 0.00 0.00 0.00 63 1019.0
20260506164855 16 276 3.2 6.4 0.00 0.00 0.00 63 1019.0
20260506164354 16 269 3.2 4.8 0.00 0.00 0.00 66 1019.0
20260506163853 16 87 1.6 4.8 0.00 0.00 0.00 66 1019.0
20260506163352 16 260 1.6 4.8 0.00 0.00 0.00 64 1019.0
20260506162851 16 207 0.0 4.8 0.00 0.00 0.00 67 1019.0
20260506162350 16 268 3.2 4.8 0.00 0.00 0.00 65 1019.0
20260506161849 16 248 3.2 4.8 0.00 0.00 0.00 64 1019.0
20260506161347 16 219 0.0 4.8 0.00 0.00 0.00 66 1019.0
20260506160846 16 122 1.6 4.8 0.00 0.00 0.00 66 1019.0
20260506160345 16 100 1.6 4.8 0.00 0.00 0.00 68 1019.0
20260506155843 16 160 3.2 4.8 0.00 0.00 0.00 68 1019.0
20260506155240 15 183 3.2 4.8 0.00 0.00 0.00 70 1019.0
20260506154739 15 209 1.6 3.2 0.00 0.00 0.00 71 1019.0
20260506154239 15 132 1.6 3.2 0.00 0.00 0.00 72 1019.0
20260506153738 14 257 1.6 3.2 0.00 0.00 0.00 75 1019.3
20260506153237 13 257 0.0 3.2 0.00 0.00 0.00 76 1019.3
20260506152736 13 280 1.6 3.2 0.00 0.00 0.00 75 1019.0
20260506152235 13 145 1.6 3.2 0.00 0.00 0.00 78 1019.0
20260506151733 13 289 0.0 3.2 0.00 0.00 0.00 80 1019.3
20260506151232 13 79 1.6 3.2 0.00 0.00 0.00 82 1019.3
20260506150731 12 80 1.6 3.2 0.00 0.00 0.00 85 1019.3
20260506150230 12 48 3.2 3.2 0.00 0.00 0.00 86 1019.3
20260506145729 12 306 1.6 3.2 0.00 0.00 0.00 87 1019.3
20260506145228 11 301 1.6 1.6 0.00 0.00 0.00 88 1019.3
20260506144727 11 332 0.0 1.6 0.00 0.00 0.00 89 1019.3
20260506144226 11 311 0.0 1.6 0.00 0.00 0.00 90 1019.0
20260506143654 11 336 0.0 1.6 0.00 0.00 0.00 90 1019.3
20260506143153 10 39 0.0 1.6 0.00 0.00 0.00 90 1019.0
20260506142652 10 113 0.0 1.6 0.00 0.00 0.00 90 1019.0
20260506142152 10 113 0.0 1.6 0.00 0.00 0.00 90 1019.0
20260506141651 10 113 0.0 1.6 0.00 0.00 0.00 90 1019.0
20260506141119 10 136 0.0 1.6 0.00 0.00 0.00 90 1019.0
20260506140617 10 101 0.0 0.0 0.00 0.00 0.00 90 1019.0
20260506140116 10 65 0.0 0.0 0.00 0.00 0.00 90 1019.0
20260506135616 10 65 0.0 1.6 0.00 0.00 0.00 90 1019.0
20260506135114 10 65 0.0 1.6 0.00 0.00 0.00 90 1019.0
20260506134613 10 65 0.0 1.6 0.00 0.00 0.00 90 1019.0
20260506134112 10 65 0.0 1.6 0.00 0.00 0.00 90 1019.0
20260506133611 10 65 0.0 0.0 0.00 0.00 0.00 90 1018.6
20260506133039 10 65 0.0 0.0 0.00 0.00 0.00 90 1018.6
20260506132538 10 65 0.0 0.0 0.00 0.00 0.00 89 1018.6
20260506132037 10 65 0.0 0.0 0.00 0.00 0.00 89 1018.6
20260506131536 10 65 0.0 0.0 0.00 0.00 0.00 89 1018.6
20260506131035 10 65 0.0 0.0 0.00 0.00 0.00 89 1018.3
20260506130534 10 65 0.0 0.0 0.00 0.00 0.00 89 1018.3
20260506130034 10 65 0.0 0.0 0.00 0.00 0.00 89 1018.3
20260506125501 10 65 0.0 0.0 0.00 0.00 0.00 89 1018.3
20260506125000 10 65 0.0 1.6 0.00 0.00 0.00 88 1018.3
20260506124459 10 65 0.0 1.6 0.00 0.00 0.00 88 1018.3
20260506123927 10 65 0.0 1.6 0.00 0.00 0.00 88 1018.3
20260506123426 10 65 0.0 0.0 0.00 0.00 0.00 88 1018.3
20260506122925 10 65 0.0 1.6 0.00 0.00 0.00 88 1018.3
20260506122424 10 65 0.0 1.6 0.00 0.00 0.00 88 1018.3
20260506121923 10 65 0.0 1.6 0.00 0.03 0.00 88 1018.3
20260506121350 10 65 0.0 1.6 0.00 0.03 0.00 88 1017.9
20260506120848 10 66 0.0 1.6 0.00 0.03 0.00 88 1017.9
20260506120347 10 117 0.0 0.0 0.00 0.03 0.00 88 1017.9
20260506115814 10 117 0.0 0.0 0.00 0.03 0.00 88 1017.9
20260506115313 10 117 0.0 0.0 0.00 0.03 0.00 88 1017.9
20260506114812 10 117 0.0 0.0 0.00 0.03 0.00 87 1017.9
20260506114259 10 117 0.0 0.0 0.00 0.03 0.00 87 1017.9
20260506113759 10 117 0.0 0.0 0.00 0.03 0.00 87 1017.9
20260506113258 10 117 0.0 0.0 0.00 0.03 0.00 87 1017.9
20260506112726 10 116 0.0 0.0 0.00 0.03 0.00 87 1017.9
20260506112225 10 116 0.0 0.0 0.00 0.05 0.00 87 1017.9
20260506111723 10 116 0.0 0.0 0.00 0.05 0.00 86 1017.9
20260506111222 10 116 0.0 1.6 0.00 0.08 0.00 85 1017.9
20260506110721 10 116 0.0 1.6 0.00 0.08 0.00 85 1017.9
20260506110221 10 116 0.0 1.6 0.00 0.08 0.00 85 1017.9
20260506105719 10 116 0.0 1.6 0.00 0.13 0.00 85 1017.9
20260506105218 10 116 0.0 0.0 0.00 0.13 0.00 85 1017.9
20260506104717 10 116 0.0 0.0 0.00 0.13 0.00 85 1017.9
20260506104145 10 116 0.0 0.0 0.00 0.15 0.00 85 1017.9
20260506103613 10 116 0.0 0.0 0.00 0.15 0.00 85 1017.9
20260506103111 10 116 0.0 0.0 0.00 0.15 0.00 85 1017.9
20260506102610 10 116 0.0 0.0 0.00 0.15 0.00 84 1017.9
20260506102109 10 116 0.0 1.6 0.00 0.15 0.00 84 1017.9
20260506101608 10 116 0.0 1.6 0.00 0.15 0.00 84 1017.9
20260506101107 10 116 0.0 1.6 0.00 0.15 0.00 85 1017.9
20260506100536 10 116 1.6 1.6 0.00 0.15 0.00 84 1017.9
20260506100034 10 116 0.0 1.6 0.00 0.15 0.00 84 1017.9
20260506095534 10 116 0.0 1.6 0.00 0.15 0.00 84 1017.9
20260506095033 10 116 0.0 0.0 0.00 0.15 0.00 84 1017.9
20260506094532 10 116 0.0 0.0 0.00 0.15 0.00 84 1017.9
20260506094031 10 116 0.0 0.0 0.00 0.15 0.00 83 1017.9
20260506093530 10 116 0.0 0.0 0.00 0.15 0.00 83 1017.9
20260506093029 11 116 0.0 0.0 0.00 0.15 0.00 83 1017.9
20260506092528 11 116 0.0 0.0 0.00 0.15 0.00 83 1017.9
20260506092027 11 116 0.0 0.0 0.00 0.15 0.00 82 1017.9
20260506091526 11 116 0.0 0.0 0.00 0.15 0.00 82 1017.9
20260506091025 11 116 0.0 0.0 0.00 0.15 0.00 82 1017.9
20260506090524 11 116 0.0 0.0 0.00 0.15 0.00 82 1017.9
20260506085951 11 43 0.0 0.0 0.00 0.15 0.00 81 1017.9
20260506085450 11 43 0.0 1.6 0.00 0.15 0.00 81 1018.3
20260506084917 11 43 0.0 1.6 0.00 0.15 0.00 81 1017.9
20260506084345 11 43 0.0 1.6 0.00 0.15 0.00 81 1018.3
20260506083844 11 44 1.6 1.6 0.00 0.15 0.00 82 1018.3
20260506083343 11 331 0.0 1.6 0.00 0.15 0.00 82 1018.3
20260506082811 11 330 0.0 0.0 0.00 0.15 0.00 82 1018.3
20260506082310 11 330 0.0 0.0 0.00 0.15 0.00 81 1018.3
20260506081809 11 330 0.0 0.0 0.00 0.15 0.00 80 1018.3
20260506081308 11 330 0.0 0.0 0.00 0.15 0.00 80 1018.3
20260506080806 11 330 0.0 0.0 0.00 0.15 0.00 80 1018.3
20260506080306 11 330 0.0 0.0 0.00 0.15 0.00 79 1018.3
20260506073126 12 330 0.0 0.0 0.00 0.15 0.00 76 1018.3
20260506072625 12 330 0.0 0.0 0.00 0.15 0.00 75 1018.3
20260506072053 12 330 0.0 1.6 0.00 0.15 0.00 75 1018.3
20260506071553 12 330 0.0 1.6 0.00 0.15 0.00 74 1018.3
20260506071051 12 330 0.0 1.6 0.00 0.15 0.00 74 1018.3
20260506070551 12 330 0.0 1.6 0.00 0.15 0.00 74 1018.3
20260506062041 13 338 1.6 1.6 0.00 0.15 0.00 71 1017.9
20260506061541 13 338 0.0 1.6 0.00 0.15 0.00 70 1017.9
20260506061040 13 316 0.0 1.6 0.00 0.15 0.00 70 1017.6
20260506060539 13 321 0.0 1.6 0.00 0.15 0.00 69 1017.6